Weather History for Bowling Green, KY

Change the Weather History Date:

Saturday, October 6, 2012

  Actual Average Record
Temperature  
Mean Temperature 53 °F 62 °F  
Max Temperature 62 °F 75 °F 93 °F (1941)
Min Temperature 43 °F 49 °F 32 °F (1952)
Degree Days  
Heating Degree Days 12 5  
Month to date heating degree days 20 26  
Since 1 July heating degree days 53 62  
Cooling Degree Days 0 2  
Month to date cooling degree days 1 13  
Year to date cooling degree days 1924 1468  
Growing Degree Days 2 (Base 50)    
Moisture  
Dew Point 38 °F    
Average Humidity 59    
Maximum Humidity 86    
Minimum Humidity 32    
Precipitation  
Precipitation 0.31 in 0.11 in 1.50 in (1910)
Month to date precipitation 1.59 0.68  
Year to date precipitation 33.07 38.17  
Snow  
Snow 0.00 in 0.00 in 0.00 in ()
Month to date snowfall 0.0 0.0  
Since 1 July snowfall 0.0 0.0  
Since 1 September snowfall 0.0 0.0  
Snow Depth 0.00 in    
Sea Level Pressure  
Sea Level Pressure 30.15 in    
Wind  
Wind Speed 6 mph (North)    
Max Wind Speed 13 mph    
Max Gust Speed 20 mph    
Visibility 9 miles    
Events Rain    
T = Trace of Precipitation, MM = Missing Value Source: NWS Daily Summary

Daily Weather History Graph

Daily Weather History Graph

Search for Another Location

Airport:

Trip Planner

Search our weather history database for the weather conditions in past years. The results will help you decide how hot, cold, wet, or windy it might be!

Date:

Astronomy

Oct. 06, 2012 Rise Set
Actual Time 6:45 AM CDT 6:20 PM CDT
Civil Twilight 6:19 AM CDT 6:46 PM CDT
Nautical Twilight 5:49 AM CDT 7:16 PM CDT
Astronomical Twilight 5:19 AM CDT 7:46 PM CDT
Moon 10:42 PM CDT (10/6) 12:33 PM CDT (10/6)
Length of Visible Light 12h 27m
Length of Day
11h 35m
Waning Gibbous, 65% of the Moon is Illuminated
Oct 6
Waning Gibbous
Oct 8
Last Quarter
Oct 15
New
Oct 21
First Quarter
Oct 29
Full

Hourly Weather History & Observations

Time (CDT) Temp. Windchill Dew Point Humidity Pressure Visibility Wind Dir Wind Speed Gust Speed Precip Events Conditions
12:53 AM 48.0 °F - 43.0 °F 83% 30.09 in 10.0 mi North 8.1 mph - N/A   Overcast
1:51 AM 46.4 °F 42.9 °F 42.8 °F 87% 30.11 in 3.0 mi Variable 6.9 mph - 0.10 in Rain Heavy Rain
1:53 AM 46.9 °F - 43.0 °F 86% 30.11 in 3.0 mi North 3.5 mph - 0.11 in Rain Heavy Rain
2:06 AM 46.4 °F 43.5 °F 42.8 °F 87% 30.12 in 3.0 mi NNW 5.8 mph - 0.06 in Rain Heavy Rain
2:53 AM 46.0 °F 44.8 °F 43.0 °F 89% 30.12 in 10.0 mi Variable 3.5 mph - 0.20 in   Overcast
3:10 AM 46.4 °F 45.2 °F 42.8 °F 87% 30.12 in 10.0 mi North 3.5 mph - N/A   Overcast
3:37 AM 46.4 °F 45.2 °F 44.6 °F 93% 30.12 in 10.0 mi North 3.5 mph - N/A   Overcast
3:53 AM 46.9 °F - 42.1 °F 83% 30.12 in 10.0 mi North 8.1 mph - N/A   Overcast
4:00 AM 46.4 °F 43.5 °F 42.8 °F 87% 30.13 in 10.0 mi North 5.8 mph - N/A   Overcast
4:28 AM 46.4 °F 42.4 °F 42.8 °F 87% 30.14 in 10.0 mi North 8.1 mph - N/A   Overcast
4:53 AM 46.0 °F 43.9 °F 42.1 °F 86% 30.14 in 10.0 mi North 4.6 mph - N/A   Overcast
5:14 AM 46.4 °F 44.3 °F 39.2 °F 76% 30.16 in 10.0 mi North 4.6 mph - N/A   Overcast
5:43 AM 46.4 °F 42.9 °F 41.0 °F 81% 30.16 in 10.0 mi North 6.9 mph - N/A   Overcast
5:53 AM 46.0 °F 41.9 °F 41.0 °F 83% 30.17 in 10.0 mi North 8.1 mph - N/A   Overcast
6:53 AM 44.1 °F 41.5 °F 39.0 °F 82% 30.18 in 10.0 mi North 4.6 mph - N/A   Clear
7:53 AM 45.0 °F 41.8 °F 39.0 °F 80% 30.21 in 10.0 mi Variable 5.8 mph - N/A   Clear
8:31 AM 46.4 °F 43.5 °F 39.2 °F 76% 30.22 in 10.0 mi Variable 5.8 mph - N/A   Mostly Cloudy
8:39 AM 46.4 °F 42.9 °F 39.2 °F 76% 30.22 in 10.0 mi NNW 6.9 mph - N/A   Partly Cloudy
8:53 AM 46.9 °F - 39.0 °F 74% 30.22 in 10.0 mi NNE 6.9 mph - N/A   Partly Cloudy
9:53 AM 50.0 °F - 37.9 °F 63% 30.22 in 10.0 mi Variable 6.9 mph - N/A   Clear
10:53 AM 53.1 °F - 37.9 °F 57% 30.19 in 10.0 mi NE 9.2 mph - N/A   Clear
11:53 AM 55.9 °F - 36.0 °F 47% 30.18 in 10.0 mi North 8.1 mph - N/A   Clear
12:53 PM 57.9 °F - 34.0 °F 41% 30.15 in 10.0 mi North 5.8 mph - N/A   Clear
1:53 PM 60.1 °F - 33.1 °F 36% 30.13 in 10.0 mi Variable 4.6 mph - N/A   Clear
2:53 PM 60.1 °F - 33.1 °F 36% 30.13 in 10.0 mi Variable 4.6 mph - N/A   Clear
3:53 PM 61.0 °F - 30.9 °F 32% 30.12 in 10.0 mi NNW 4.6 mph - N/A   Clear
4:53 PM 57.9 °F - 30.9 °F 36% 30.13 in 10.0 mi NNW 8.1 mph - N/A   Clear
5:53 PM 57.0 °F - 30.9 °F 37% 30.13 in 10.0 mi North 4.6 mph - N/A   Partly Cloudy
6:53 PM 55.0 °F - 32.0 °F 42% 30.12 in 10.0 mi North 4.6 mph - N/A   Mostly Cloudy
7:53 PM 54.0 °F - 34.0 °F 47% 30.15 in 10.0 mi NNW 5.8 mph - N/A   Overcast
8:53 PM 53.1 °F - 35.1 °F 50% 30.17 in 10.0 mi NNW 4.6 mph - N/A   Overcast
9:53 PM 52.0 °F - 35.1 °F 53% 30.17 in 10.0 mi NNW 8.1 mph - 0.00 in   Overcast
10:53 PM 51.1 °F - 36.0 °F 56% 30.15 in 10.0 mi North 5.8 mph - N/A   Overcast
11:53 PM 51.1 °F - 36.0 °F 56% 30.14 in 10.0 mi North 5.8 mph - N/A   Overcast